Regional Weather Roundup
Issued by NWS Upton, NY

Current Version | Previous Version | Text Only | Print | Product List | Glossary On
Versions: 1 2 3 4 5 6 7 8 9 10 11 12 13 14 15 16 17 18 19 20 21 22 23 24 25 26 27 28
000
ASUS41 KOKX 061508
RWROKX

REGIONAL WEATHER ROUNDUP
NATIONAL WEATHER SERVICE NEW YORK NY
1000 AM EST TUE DEC 06 2016

NOTE: "FAIR" INDICATES FEW OR NO CLOUDS BELOW 12,000 FEET WITH NO
SIGNIFICANT WEATHER AND/OR OBSTRUCTIONS TO VISIBILITY.

NYZ071-072-176-178-NJZ106-104-061600-
NEW YORK CITY METRO AREA

CITY           SKY/WX    TMP DP  RH WIND       PRES   REMARKS
Central Park   MOSUNNY   44  29  55 VRB7      30.16S
Wall St Helipt CLOUDY    46  34  62 NE10      30.14F
Bronx Bot Gard   N/A     43  30  61 N2        30.14F
LaGuardia APRT CLOUDY    46  30  53 NE10      30.14S
Kennedy INTL   CLOUDY    45  29  53 NE12      30.15F
Breezy Point     N/A     41 N/A N/A NE6         N/A
Newark/Liberty CLOUDY    41  32  70 NE8       30.14F
Teterboro      MOSUNNY   40  30  67 N5        30.14S
$$

NYZ177-179-078>081-061600-
LONG ISLAND NEW YORK

CITY           SKY/WX    TMP DP  RH WIND       PRES   REMARKS
Jones Beach      N/A     41 N/A N/A N8          N/A
Matinecock PT    N/A     43 N/A N/A N7          N/A
Farmingdale    CLOUDY    42  33  70 NE8       30.15S
MacArthur/ISP  PTSUNNY   44  33  65 NE8       30.14S
Shirley        MOSUNNY   44  34  67 N5        30.15F
Westhampton    CLOUDY    40  37  89 CALM      30.17R
Southampton    NOT AVBL
Bridgehampton  NOT AVBL
East Hampton     N/A     44  30  59 CALM      30.15R
Montauk          N/A     44  30  57 N7        30.15R
$$

NYZ052-065-067-061600-
HUDSON VALLEY

CITY           SKY/WX    TMP DP  RH WIND       PRES   REMARKS
White Plains   MOSUNNY   42  30  62 N7        30.12F
Newburgh       PTSUNNY   39  30  70 CALM      30.15S
Montgomery     MOSUNNY   37  30  75 CALM      30.13S
Poughkeepsie   SUNNY     36  29  75 CALM      30.15S
Albany         MOSUNNY   39  32  76 S3        30.15R
$$

NJZ001-105-106-008-010-013-015-019>022-104-061600-
NEW JERSEY

CITY           SKY/WX    TMP DP  RH WIND       PRES   REMARKS
Newark/Liberty CLOUDY    41  32  70 NE8       30.14F
Teterboro      MOSUNNY   40  30  67 N5        30.14S
Caldwell       CLOUDY    37  32  82 NE3       30.15S
Somerville     MOSUNNY   35  33  92 CALM      30.13S
Linden           N/A     42  30  62 CALM      30.15F
Sussex         CLOUDY    31  30  96 CALM      30.13S
Andover          N/A     33  31  92 CALM      30.13S
Trenton        CLOUDY    41  31  67 NE10      30.12F
Millville      CLOUDY    42  32  67 E9        30.10F
Atlantic City  CLOUDY    42  32  67 NE8       30.11F
Wrightstown    CLOUDY    39  32  76 NE6       30.10F WCI  35
Toms River     CLOUDY    37  32  82 CALM      30.13F
Belmar         MOSUNNY   41  33  73 NE5       30.14F
$$

PAZ047>061-062-071-061600-
EASTERN PENNSYLVANIA

CITY           SKY/WX    TMP DP  RH WIND       PRES   REMARKS
Philadelphia   CLOUDY    42  30  62 NE10      30.13S
Allentown      CLOUDY    35  30  82 NE3       30.13S
Scranton       CLOUDY    33  28  81 N5        30.08F WCI  29
$$

CTZ002-004>006-009-010-012-RIZ004-006-007-MAZ004-011-015-061600-
SOUTHERN NEW ENGLAND
 IN CT

CITY           SKY/WX    TMP DP  RH WIND       PRES   REMARKS
Bradley INTL   MOSUNNY   43  30  60 N7        30.14R
Hartford       SUNNY     40  32  73 CALM      30.15R
Danbury        SUNNY     38  31  76 CALM      30.15S
Wtrbury/Oxford SUNNY     37  28  70 CALM      30.15R
Bridgeport     SUNNY     46  30  53 N5        30.16S
Meriden        SUNNY     40  31  70 CALM      30.16R
New Haven      MOSUNNY   40  31  70 NW5       30.16R
Chester          N/A     43  30  61 CALM      30.14R
Groton         SUNNY     47  32  56 N7        30.14R
Wilimantic     SUNNY     37  32  82 CALM      30.15R

 IN RI

CITY           SKY/WX    TMP DP  RH WIND       PRES   REMARKS
Providence     MOSUNNY   42  30  62 N7        30.15R
Block Island   SUNNY     43  30  60 VRB6      30.14R
Westerly       SUNNY     44  30  57 CALM      30.14S
 IN MA

CITY           SKY/WX    TMP DP  RH WIND       PRES   REMARKS
Boston         MOSUNNY   40  30  67 NW14G20   30.14R WCI  32
Worcester      SUNNY     38  27  64 NW3       30.11R
Westfield      SUNNY     42  34  73 N3        30.13S
Provincetown   SUNNY     42  31  64 NW14      30.13R
Nantucket      SUNNY     44  30  57 N14       30.11R
$$

ANZ330-335-338-340-345-350-353-355-061600-
COASTAL MARINE OBSERVATIONS


STATION/POSITION TIME  SKY/WX   TEMP    WIND        PRES    VSBY  WAVE
                                AIR SEA DIR/SP/G                  HT/PER
                 (UTC)          (F)     (DEG/KT/KT) (MB)    (MI)  (FT/S)
NY HARB ENTRANCE 1450            45 52   50/ 12/ 16 1020.4          2/11
20 S FIRE ISLAND 1350            45 54   30/ 12/ 16 1020.3          3/ 3
GREAT SOUTH BAY  NOT AVBL
23 SSW MONTAUK P 1450            45 54   30/ 12/ 16 1021.2          3/ 4
15 E BARNEGAT LI 1430               54                N/A           3/ 8
HUDSON CANYON    1350            48 58              1019.6          4/ 5
KINGS POINT      1448            42 48              1020.5
EXECUTION ROCKS  1445            44     360/  6/  8   N/A
CENTRAL LI SOUND 1430            44 50  340/  4/  6   N/A           1
EASTERN LI SOUND NOT AVBL
ROBBINS REEF     1448            41     350/  4/  5 1020.8
$$


>>>>>>>>>>>>>>>>>>>>>>>>>>>> KEY <<<<<<<<<<<<<<<<<<<<<<<<<<<
>                                                          <
>     SKY/WX - Sky Condition/Present Weather               <
>     TMP    - Temperature in Fahrenheit                   <
>     DP     - Dew Point in Fahrenheit                     <
>     RH     - Relative Humidity in Percent                <
>     WIND   - Direction (from) and Speed in MPH           <
>     PRES   - Mean Sea Level Pressure (inches of Hg)      <
>     WCI    - Wind Chill Index                            <
>     VSB    - VISIBILITY IN MILES                         <
>     HX     - HEAT INDEX                                  <
>     TC     - TEMPERATURE IN CELSIUS                      <
>     VRB    - VARIABLE WIND DIRECTION                     <
>                                                          <
>>>>>>>>>>>>>>>>>>>>>>>>>>>> KEY <<<<<<<<<<<<<<<<<<<<<<<<<<<




USA.gov is the U.S. government's official web portal to all federal, state and local government web resources and services.